DELTA 1 DEB, 9568

Orbit data source: Space-Track

DELTA 1 DEB, 9568 is space debris in SSO originally from a launch on Tue, 06 Nov 1973 UTC launched from the Air Force Western Test Range (AFWTR). Debris objects in space refer to the collection of defunct objects orbiting the Earth. Examples of debris include non-operational satellites, rocket bodies, and fragments generated from explosions, collisions, or faulty payload assembly.

Loading next visibility...
Identifier
9568, 1973-086FW
Orbit
SSO
Country
Flag of USUS
Related business
Manufacturer
Unknown
Mission
Spacecraft
Bus & Motor
Unknown
Mass
Unknown
Launch date (UTC)
1973-11-06 (53 years ago)
Launch vehicle
Unknown
Launch site
Air Force Western Test Range (AFWTR)
Object type
Payload
Rocket body
Debris
Shape & HBR
Unknown shape, 0.1 m
Radar Cross Section
Medium (>0.1 m² and <1 m²)

Expand to show TLE details & history
Last TLE update: 16 hours ago

TLE from 16 hours ago
0 DELTA 1 DEB
1  9568U 73086FW  26209.06043375  .00000668  00000-0  65438-2 0  9997
2  9568 101.4787  44.2990 0347125 110.8658  18.3946 12.08541375309927
Epoch: 2026-07-28T01:27Z
TLE epoch observation values (Epoch: 2026-07-28T01:27:01.476Z)
Latitude
48.20366°
Longitude
-90.12982°
Altitude
1,386.903 km
Speed
7.287 km/s
True Right ascension
15h 49m 26s
True Declination
48° 02' 48"
Sunlit
Object was in daylight at epoch
Visualization orbit readout
Latitude
Unknown
Longitude
Unknown
Altitude
Unknown
Speed
Unknown
Apparent Right ascension
Unknown
Apparent Declination
Unknown
Sunlit
N/A
Visualization observer readout
Local Sidereal Time
06:29:25
Azimuth
Unknown
Elevation
Unknown
Doppler factor
Unknown
Orbital elements
Apogee altitude
1,918.77 km
Perigee altitude
1,362.082 km
Semi-major axis
8,018.563 km
Eccentricity
0.03471
Inclination
101.4787°
RAAN
44.299°
Arg. of periapsis
110.8658°
True anomaly
19.70351°
Mean anomaly
18.3946°
Eccentric anomaly
19.04354°
Mean motion
3.02272 °/min
Orbital period
119.1 mins
BSTAR
0.0065438
Loading maneuver chart data...
Computing Atmospheric mass density...
Loading historical data...
Loading historical data...
Loading historical data...
Loading historical data...
Loading historical data...
Loading historical data...
Loading historical data...

Documentation

Showing up to 5 results
|